| time (UTC) | temp C | wind direction | speed KPH | gust KPH | rain 1hr cm | rain 24hr cm | rain mn cm | humidity % | barometer mb |
| 20260902203050 | 29 | 288 | 0.0 | 19.3 | 0.00 | 0.00 | 0.00 | 17 | 1015.0 |
| 20260902201545 | 29 | 295 | 0.0 | 22.5 | 0.00 | 0.00 | 0.00 | 17 | 1015.1 |
| 20260902200044 | 29 | 311 | 1.6 | 22.5 | 0.00 | 0.00 | 0.00 | 16 | 1015.2 |
| 20260902194543 | 28 | 262 | 0.0 | 1.6 | 0.00 | 0.00 | 0.00 | 16 | 1015.2 |
| 20260902193041 | 28 | 302 | 0.0 | 19.3 | 0.00 | 0.00 | 0.00 | 17 | 1015.2 |
| 20260902191541 | 28 | 281 | 1.6 | 17.7 | 0.00 | 0.00 | 0.00 | 16 | 1015.5 |
| 20260902190037 | 28 | 287 | 0.0 | 27.4 | 0.00 | 0.00 | 0.00 | 15 | 1015.6 |
| 20260902184536 | 27 | 317 | 0.0 | 19.3 | 0.00 | 0.00 | 0.00 | 14 | 1015.7 |
| 20260902183051 | 27 | 291 | 0.0 | 19.3 | 0.00 | 0.00 | 0.00 | 14 | 1015.7 |
| 20260902181530 | 27 | 265 | 0.0 | 17.7 | 0.00 | 0.00 | 0.00 | 13 | 1015.8 |
| 20260902180029 | 26 | 292 | 0.0 | 20.9 | 0.00 | 0.00 | 0.00 | 13 | 1015.7 |
| 20260902174528 | 26 | 254 | 0.0 | 17.7 | 0.00 | 0.00 | 0.00 | 14 | 1015.7 |
| 20260902173028 | 26 | 279 | 0.0 | 20.9 | 0.00 | 0.00 | 0.00 | 14 | 1015.6 |
| 20260902171521 | 26 | 312 | 1.6 | 12.9 | 0.00 | 0.00 | 0.00 | 15 | 1015.4 |
| 20260902170017 | 25 | 293 | 0.0 | 1.6 | 0.00 | 0.00 | 0.00 | 16 | 1015.2 |
| 20260902164521 | 25 | 236 | 0.0 | 16.1 | 0.00 | 0.00 | 0.00 | 15 | 1015.2 |
| 20260902163009 | 23 | 263 | 0.0 | 0.0 | 0.00 | 0.00 | 0.00 | 17 | 1015.1 |
| 20260902161505 | 22 | 159 | 0.0 | 0.0 | 0.00 | 0.00 | 0.00 | 18 | 1015.0 |
| 20260902160000 | 20 | 128 | 0.0 | 11.3 | 0.00 | 0.00 | 0.00 | 23 | 1015.0 |
| 20260902154557 | 17 | 122 | 0.0 | 1.6 | 0.00 | 0.00 | 0.00 | 26 | 1015.0 |
| 20260902153104 | 15 | 122 | 0.0 | 4.8 | 0.00 | 0.00 | 0.00 | 31 | 1014.8 |
| 20260902151548 | 13 | 122 | 0.0 | 6.4 | 0.00 | 0.00 | 0.00 | 34 | 1014.9 |
| 20260902150044 | 12 | 123 | 0.0 | 0.0 | 0.00 | 0.00 | 0.00 | 38 | 1014.9 |
| 20260902144540 | 11 | 122 | 0.0 | 0.0 | 0.00 | 0.00 | 0.00 | 40 | 1014.9 |
| 20260902143038 | 11 | 122 | 0.0 | 0.0 | 0.00 | 0.00 | 0.00 | 41 | 1014.9 |
| 20260902141537 | 10 | 122 | 0.0 | 0.0 | 0.00 | 0.00 | 0.00 | 41 | 1014.9 |
| 20260902140036 | 10 | 122 | 0.0 | 0.0 | 0.00 | 0.00 | 0.00 | 43 | 1014.7 |
| 20260902134535 | 10 | 122 | 0.0 | 0.0 | 0.00 | 0.00 | 0.00 | 41 | 1014.3 |
| 20260902133034 | 9 | 122 | 0.0 | 0.0 | 0.00 | 0.00 | 0.00 | 40 | 1014.3 |
| 20260902131532 | 9 | 294 | 0.0 | 3.2 | 0.00 | 0.00 | 0.00 | 40 | 1014.2 |
| 20260902130031 | 9 | 296 | 0.0 | 0.0 | 0.00 | 0.00 | 0.00 | 40 | 1014.2 |
| 20260902124529 | 10 | 296 | 0.0 | 0.0 | 0.00 | 0.00 | 0.00 | 39 | 1014.3 |
| 20260902123030 | 10 | 296 | 0.0 | 0.0 | 0.00 | 0.00 | 0.00 | 39 | 1014.2 |
| 20260902121527 | 10 | 296 | 0.0 | 0.0 | 0.00 | 0.00 | 0.00 | 38 | 1014.2 |
| 20260902120026 | 10 | 296 | 0.0 | 0.0 | 0.00 | 0.00 | 0.00 | 38 | 1014.1 |
| 20260902114526 | 10 | 296 | 0.0 | 0.0 | 0.00 | 0.00 | 0.00 | 38 | 1014.1 |
| 20260902113025 | 10 | 296 | 0.0 | 0.0 | 0.00 | 0.00 | 0.00 | 38 | 1014.2 |
| 20260902111522 | 10 | 296 | 0.0 | 0.0 | 0.00 | 0.00 | 0.00 | 38 | 1014.2 |
| 20260902110035 | 10 | 296 | 0.0 | 0.0 | 0.00 | 0.00 | 0.00 | 38 | 1014.2 |
| 20260902104532 | 10 | 296 | 0.0 | 0.0 | 0.00 | 0.00 | 0.00 | 38 | 1014.2 |
| 20260902103036 | 10 | 296 | 0.0 | 0.0 | 0.00 | 0.00 | 0.00 | 38 | 1014.3 |
| 20260902101517 | 10 | 296 | 0.0 | 0.0 | 0.00 | 0.00 | 0.00 | 38 | 1014.5 |
| 20260902100016 | 10 | 296 | 0.0 | 0.0 | 0.00 | 0.00 | 0.00 | 38 | 1014.5 |
| 20260902094514 | 10 | 296 | 0.0 | 0.0 | 0.00 | 0.00 | 0.00 | 39 | 1014.5 |
| 20260902093012 | 10 | 296 | 0.0 | 0.0 | 0.00 | 0.00 | 0.00 | 39 | 1014.5 |
| 20260902091511 | 11 | 296 | 0.0 | 0.0 | 0.00 | 0.00 | 0.00 | 40 | 1014.5 |
| 20260902090018 | 11 | 296 | 0.0 | 0.0 | 0.00 | 0.00 | 0.00 | 40 | 1014.5 |
| 20260902084508 | 11 | 296 | 0.0 | 0.0 | 0.00 | 0.00 | 0.00 | 41 | 1014.5 |
| 20260902083005 | 11 | 296 | 0.0 | 0.0 | 0.00 | 0.00 | 0.00 | 44 | 1014.6 |
| 20260902081504 | 11 | 296 | 0.0 | 0.0 | 0.00 | 0.00 | 0.00 | 45 | 1014.6 |
| 20260902080004 | 11 | 296 | 0.0 | 0.0 | 0.00 | 0.00 | 0.00 | 47 | 1014.6 |
| 20260902074600 | 11 | 296 | 0.0 | 0.0 | 0.00 | 0.00 | 0.00 | 49 | 1014.6 |
| 20260902073059 | 11 | 296 | 0.0 | 0.0 | 0.00 | 0.00 | 0.00 | 51 | 1014.6 |
| 20260902071658 | 11 | 296 | 0.0 | 0.0 | 0.00 | 0.00 | 0.00 | 50 | 1014.6 |
| 20260902070053 | 11 | 296 | 0.0 | 0.0 | 0.00 | 0.00 | 0.00 | 48 | 1014.4 |
| 20260902064601 | 11 | 296 | 0.0 | 0.0 | 0.00 | 0.00 | 0.00 | 49 | 1014.3 |
| 20260902063104 | 11 | 296 | 0.0 | 0.0 | 0.00 | 0.00 | 0.00 | 52 | 1014.3 |
| 20260902060048 | 12 | 296 | 0.0 | 0.0 | 0.00 | 0.00 | 0.00 | 54 | 1013.7 |
| 20260902054547 | 12 | 296 | 0.0 | 0.0 | 0.00 | 0.00 | 0.00 | 60 | 1013.6 |
| 20260902053047 | 13 | 296 | 0.0 | 0.0 | 0.00 | 0.00 | 0.00 | 62 | 1013.7 |
| 20260902051558 | 13 | 296 | 0.0 | 0.0 | 0.00 | 0.00 | 0.00 | 61 | 1013.8 |
| 20260902050047 | 13 | 296 | 0.0 | 0.0 | 0.00 | 0.00 | 0.00 | 60 | 1013.9 |
| 20260902044604 | 14 | 296 | 0.0 | 0.0 | 0.00 | 0.00 | 0.00 | 56 | 1013.8 |
| 20260902043048 | 15 | 296 | 0.0 | 0.0 | 0.00 | 0.00 | 0.00 | 55 | 1013.6 |
| 20260902041547 | 15 | 296 | 0.0 | 0.0 | 0.00 | 0.00 | 0.00 | 55 | 1013.3 |
| 20260902040044 | 16 | 296 | 0.0 | 0.0 | 0.00 | 0.00 | 0.00 | 55 | 1013.3 |
| 20260902034543 | 16 | 296 | 0.0 | 0.0 | 0.00 | 0.00 | 0.00 | 53 | 1013.1 |
| 20260902033043 | 17 | 296 | 0.0 | 0.0 | 0.00 | 0.00 | 0.00 | 52 | 1012.8 |
| 20260902031555 | 18 | 296 | 0.0 | 0.0 | 0.00 | 0.00 | 0.00 | 50 | 1012.6 |
| 20260902030041 | 18 | 296 | 0.0 | 0.0 | 0.00 | 0.00 | 0.00 | 49 | 1012.3 |
| 20260902024550 | 19 | 296 | 0.0 | 0.0 | 0.00 | 0.00 | 0.00 | 48 | 1012.2 |
| 20260902023041 | 20 | 296 | 0.0 | 0.0 | 0.00 | 0.00 | 0.00 | 48 | 1012.2 |
| 20260902021544 | 20 | 296 | 0.0 | 0.0 | 0.00 | 0.00 | 0.00 | 47 | 1012.1 |
| 20260902020042 | 21 | 296 | 0.0 | 0.0 | 0.00 | 0.00 | 0.00 | 47 | 1012.1 |
| 20260902014541 | 21 | 234 | 0.0 | 6.4 | 0.00 | 0.00 | 0.00 | 46 | 1012.2 |
| 20260902013040 | 22 | 282 | 0.0 | 6.4 | 0.00 | 0.00 | 0.00 | 43 | 1012.1 |
| 20260902011538 | 22 | 207 | 0.0 | 14.5 | 0.00 | 0.00 | 0.00 | 42 | 1012.2 |
| 20260902010041 | 23 | 305 | 0.0 | 8.0 | 0.00 | 0.00 | 0.00 | 41 | 1012.4 |
| 20260902004537 | 23 | 316 | 0.0 | 19.3 | 0.00 | 0.00 | 0.00 | 42 | 1012.5 |
| 20260902003037 | 24 | 238 | 0.0 | 1.6 | 0.00 | 0.00 | 0.00 | 42 | 1012.4 |
| 20260902001536 | 24 | 227 | 0.0 | 20.9 | 0.00 | 0.00 | 0.00 | 40 | 1012.4 |
| 20260902000034 | 25 | 299 | 3.2 | 14.5 | 0.00 | 0.00 | 0.00 | 38 | 1012.7 |
| 20260901234534 | 25 | 217 | 0.0 | 16.1 | 0.00 | 0.00 | 0.00 | 36 | 1012.7 |
| 20260901233032 | 26 | 281 | 0.0 | 12.9 | 0.00 | 0.00 | 0.00 | 34 | 1012.8 |
| 20260901231535 | 26 | 286 | 0.0 | 16.1 | 0.00 | 0.00 | 0.00 | 35 | 1012.7 |
| 20260901230030 | 26 | 259 | 0.0 | 17.7 | 0.00 | 0.00 | 0.00 | 35 | 1012.8 |
| 20260901224528 | 26 | 324 | 3.2 | 16.1 | 0.00 | 0.00 | 0.00 | 35 | 1012.9 |
| 20260901223027 | 27 | 308 | 0.0 | 0.0 | 0.00 | 0.00 | 0.00 | 33 | 1012.9 |
| 20260901221525 | 27 | 298 | 0.0 | 19.3 | 0.00 | 0.00 | 0.00 | 30 | 1012.8 |
| 20260901220023 | 28 | 304 | 0.0 | 24.1 | 0.00 | 0.00 | 0.00 | 27 | 1012.8 |
| 20260901214522 | 28 | 300 | 1.6 | 17.7 | 0.00 | 0.00 | 0.00 | 26 | 1013.1 |
| 20260901213026 | 29 | 314 | 3.2 | 22.5 | 0.00 | 0.00 | 0.00 | 26 | 1013.2 |
| 20260901211518 | 29 | 267 | 1.6 | 22.5 | 0.00 | 0.00 | 0.00 | 26 | 1013.2 |
| 20260901210016 | 29 | 258 | 1.6 | 16.1 | 0.00 | 0.00 | 0.00 | 27 | 1013.3 |
| 20260901204517 | 29 | 304 | 0.0 | 22.5 | 0.00 | 0.00 | 0.00 | 27 | 1013.4 |